GFSNE_sfc_30mbdewp_225.txt.gz
Dewpoint
49 48 48 48 49 49 51 50 48 44 44 46 47 49 49 48 48 48 47 46 47 46 46 45 46 45 44 44 43 42 40 40 39 37 36 36 36 36
47 46 46 47 47 48 49 49 50 48 45 46 47 47 48 46 47 48 47 46 46 45 45 45 45 45 44 43 42 40 39 38 38 36 35 35 35 33
46 45 45 45 45 46 47 48 48 48 46 46 47 47 46 43 46 47 46 46 45 44 44 44 44 43 42 40 38 37 37 35 36 35 34 35 33 30
45 44 44 44 44 43 45 44 46 47 47 45 46 46 43 42 44 44 45 45 45 44 43 42 40 40 39 36 35 35 35 33 35 34 34 31 27 27
45 45 44 44 43 43 42 43 44 45 46 46 44 45 43 41 41 42 43 43 43 43 41 40 38 38 38 34 33 32 33 32 34 31 29 26 25 27
44 44 44 43 43 42 42 42 42 42 42 44 44 42 42 40 39 38 38 39 38 40 39 38 37 37 36 34 32 32 33 31 31 28 25 24 25 26
43 42 42 42 42 41 41 40 41 40 40 42 42 40 38 36 36 38 36 36 36 37 36 36 35 36 35 34 32 32 31 30 29 27 24 24 24 25
41 41 40 40 40 40 39 40 40 39 39 40 39 38 36 36 36 35 32 31 29 33 32 31 34 33 33 32 31 30 29 31 31 26 23 24 24 26
40 40 39 39 39 39 38 38 38 39 39 41 38 37 34 36 34 33 32 32 32 32 33 28 31 29 31 31 30 32 32 32 31 26 23 23 25 28
39 39 39 38 38 37 36 36 35 35 37 37 38 37 36 37 35 34 33 32 31 32 32 24 29 27 30 31 32 32 32 31 31 23 22 23 24 25
38 38 38 37 37 37 35 34 34 33 35 35 34 36 38 38 37 33 29 28 26 27 31 26 28 28 29 30 31 33 32 31 30 22 22 23 23 24
36 36 37 36 36 36 34 32 31 31 32 32 32 33 33 33 34 33 31 27 26 26 30 27 28 28 24 27 30 32 31 31 25 22 22 21 21 20
34 34 34 34 35 34 33 31 31 31 30 30 29 30 30 31 31 32 32 29 27 27 31 29 28 27 25 22 25 27 27 25 21 20 20 20 20 19
34 33 33 33 33 32 31 31 31 31 30 29 29 28 27 28 30 31 31 30 31 30 31 31 29 26 24 22 21 24 24 21 19 20 20 21 21 21
34 33 32 32 32 31 31 30 30 29 28 26 24 24 25 26 27 25 26 25 25 26 28 29 29 27 26 23 22 22 21 22 20 19 19 18 16 15
32 32 31 31 30 30 30 30 30 29 27 24 23 24 25 25 24 25 23 23 21 20 23 24 27 25 21 18 18 17 17 15 19 18 17 16 16 15
30 29 28 28 27 28 29 29 29 28 25 24 24 23 23 23 22 23 23 22 19 18 18 19 20 19 18 16 15 15 15 15 16 15 15 13 14 13
29 27 26 27 27 27 27 27 27 26 25 25 24 23 22 22 22 22 22 20 17 16 15 16 14 12 14 13 17 15 14 13 14 15 15 11 11 13
28 27 26 27 27 27 28 27 25 26 26 25 24 23 22 22 21 21 20 18 17 16 16 17 15 13 12 12 17 18 12 16 14 12 12 11 11 12
28 26 26 27 27 27 27 27 26 25 25 24 22 21 21 21 20 20 20 20 20 20 19 18 17 17 13 11 15 18 21 15 13 11 10 10 11 12
27 27 28 27 27 28 27 27 26 25 24 22 22 21 20 20 19 19 18 18 18 19 19 19 18 18 15 13 13 12 14 19 14 11 10 10 10 10
28 27 28 28 27 27 26 26 25 23 22 21 21 20 19 19 18 18 17 17 16 14 14 14 15 15 12 10 8 9 9 10 12 11 11 10 7 6
28 28 28 28 27 27 26 26 24 23 22 21 20 20 19 18 18 19 17 16 15 14 14 12 14 13 11 8 6 6 6 6 7 6 7 10 7 6

GFSNE_sfc_30mbdewp_228.txt.gz
Dewpoint
48 47 47 47 47 47 48 48 46 41 44 46 48 52 52 50 49 49 49 49 49 49 50 50 49 48 48 47 46 45 44 43 42 41 40 39 38 38
44 47 47 46 46 46 46 46 47 45 41 46 47 49 51 51 50 50 49 49 48 48 49 49 48 48 47 46 46 45 44 43 42 40 39 38 38 37
44 45 46 45 45 44 45 44 45 44 42 43 46 48 49 50 50 49 49 49 48 48 48 48 47 47 46 46 46 45 43 43 41 38 37 37 37 35
42 44 44 45 44 44 44 43 43 43 42 41 42 45 48 48 48 47 49 49 48 47 47 47 47 46 45 45 43 42 41 40 39 36 36 36 34 31
36 35 37 43 43 43 43 43 43 42 42 41 41 42 45 47 46 46 47 47 47 47 46 46 45 45 43 42 40 39 37 37 36 36 35 32 29 31
38 37 39 43 43 42 43 42 42 41 41 40 40 40 42 43 44 43 42 44 44 45 45 44 43 42 40 39 38 36 35 36 35 33 30 28 29 31
40 41 42 42 42 42 42 41 40 39 39 38 37 39 40 40 40 41 40 39 40 42 41 40 40 39 38 37 37 35 34 34 33 31 29 30 30 28
40 40 41 41 41 41 40 40 39 38 37 37 36 36 38 39 40 39 37 34 32 37 37 36 37 35 35 35 35 35 33 32 32 29 29 30 27 26
37 38 39 39 39 39 38 38 38 38 37 37 36 37 37 38 39 38 35 35 34 33 34 29 32 31 32 34 35 33 31 31 30 31 31 29 26 26
36 37 38 38 38 38 37 36 36 36 36 36 37 39 38 37 37 37 34 34 31 32 33 26 30 28 31 32 34 31 30 31 32 31 30 25 25 27
35 35 37 37 37 37 36 35 34 34 35 35 36 38 38 38 37 33 31 30 28 29 30 27 27 27 29 30 32 31 32 33 32 31 29 28 26 26
34 35 35 36 36 36 35 34 32 32 32 32 33 34 37 37 35 34 32 29 28 27 29 26 26 26 24 29 30 32 32 32 32 31 30 28 29 27
34 34 35 35 35 35 35 33 32 32 31 30 30 31 31 32 32 32 33 30 29 27 30 29 28 27 24 23 28 30 30 31 30 30 29 28 27 25
34 35 34 34 34 34 33 32 32 31 30 29 29 28 29 29 30 31 31 32 32 30 31 30 28 26 22 22 22 26 27 27 26 25 24 23 22 22
34 34 34 33 33 32 32 31 30 29 27 25 24 25 26 26 27 26 26 26 26 28 31 32 29 27 25 23 21 23 22 23 25 24 22 22 22 21
33 32 32 32 31 30 30 30 29 28 26 24 23 24 26 27 26 27 24 24 23 22 25 29 29 27 24 25 24 22 23 21 22 20 20 19 18 16
31 30 28 28 28 28 28 28 27 26 24 24 24 24 24 24 23 25 24 23 20 20 20 22 23 24 24 23 21 22 20 19 20 19 17 15 16 15
29 27 27 27 26 27 27 26 26 25 25 24 24 23 22 22 22 22 23 21 18 18 18 19 20 19 15 14 18 16 15 15 16 16 15 13 12 14
28 27 26 27 27 27 27 26 24 25 25 24 23 23 22 22 21 20 20 18 17 17 17 16 13 11 8 9 17 17 14 15 15 13 13 11 11 12
27 26 26 27 27 27 27 25 25 25 24 23 23 22 22 22 21 20 18 16 15 13 14 15 11 9 9 13 16 18 18 13 12 11 10 11 11 13
26 26 27 27 28 27 27 26 25 24 23 22 22 21 21 21 20 18 18 17 16 15 14 14 16 14 13 13 14 16 17 18 15 13 10 8 8 10
27 27 27 28 28 27 27 26 25 24 23 22 21 20 19 19 18 18 18 18 17 16 15 17 17 14 12 11 10 8 9 9 12 15 14 11 8 7
27 27 27 27 27 27 26 25 24 23 22 22 20 19 18 17 17 16 16 16 16 16 16 15 14 12 11 10 9 8 7 6 6 4 3 4 4 4

GFSNE_sfc_30mbdewp_231.txt.gz
Dewpoint
45 46 45 45 46 47 47 46 43 39 39 41 45 50 53 53 52 51 50 50 49 49 51 53 53 52 52 52 50 50 50 48 47 45 43 43 42 40
41 40 39 42 45 45 45 45 44 42 40 41 43 45 49 52 52 51 50 50 49 49 50 51 52 52 51 51 50 50 49 47 47 45 44 42 41 40
40 42 43 44 45 45 45 45 44 44 41 42 42 44 44 46 49 51 50 50 50 48 48 50 51 51 50 49 49 48 47 46 45 44 42 40 40 38
40 42 42 43 43 43 44 43 43 43 42 40 41 41 41 41 45 48 49 50 50 49 47 48 49 49 49 48 48 47 46 46 45 43 41 39 39 36
41 40 38 37 38 40 43 43 42 43 43 41 40 41 41 41 42 44 47 48 49 49 47 47 48 48 47 47 46 45 45 43 42 40 39 38 36 33
41 40 39 38 39 41 42 42 42 42 41 40 40 39 39 39 39 40 41 45 46 48 48 47 47 47 47 45 45 44 42 40 38 37 36 33 32 34
39 39 40 41 42 42 41 41 41 40 39 38 37 38 37 37 36 39 40 42 41 45 45 45 45 45 45 44 43 42 40 38 37 34 31 31 33 32
37 37 38 38 39 37 39 40 40 38 37 37 36 36 36 37 37 37 38 36 36 38 41 40 44 43 42 42 40 39 38 36 34 32 31 30 31 30
36 36 36 36 37 37 37 37 38 38 37 37 35 35 35 37 38 37 38 38 37 37 37 31 36 36 39 39 38 37 36 35 33 32 30 28 29 30
34 34 34 34 35 36 36 36 36 36 36 36 35 35 37 37 38 38 38 34 33 32 32 27 31 29 33 35 36 35 34 34 33 31 29 31 31 30
34 34 33 34 35 36 35 34 34 34 35 36 36 36 37 37 37 35 32 31 29 27 30 27 27 28 30 31 33 33 33 33 31 31 31 30 29 30
34 35 35 35 34 35 35 34 33 33 34 33 33 33 34 36 37 36 33 30 28 26 29 25 27 27 24 29 31 31 32 33 32 31 30 29 30 29
32 33 35 35 35 35 35 34 33 33 32 31 30 31 31 32 32 33 34 32 29 26 30 28 27 26 24 25 29 30 31 31 31 31 30 30 30 28
30 32 33 35 34 34 34 34 33 32 30 29 29 29 29 29 30 31 31 32 32 29 31 30 28 25 25 24 24 28 29 29 29 28 28 29 29 29
30 32 32 33 33 33 33 32 31 30 28 27 26 25 26 26 27 27 27 28 28 31 31 32 29 27 27 24 23 24 24 25 26 25 25 26 25 25
30 30 31 31 31 31 30 30 29 28 26 25 24 25 27 27 26 27 25 25 24 23 28 30 29 28 25 25 23 23 23 21 24 24 24 24 23 21
30 30 29 28 28 28 28 27 27 26 25 25 24 24 24 24 24 26 25 24 22 21 21 23 25 26 26 25 23 23 22 22 23 23 21 19 19 17
30 28 27 27 26 26 26 25 25 25 24 24 24 24 23 22 22 23 23 22 20 20 20 22 23 22 21 22 24 22 21 21 21 19 17 15 15 15
29 27 27 26 26 27 26 25 24 25 25 24 23 23 23 22 21 21 20 20 19 19 19 21 21 18 15 13 17 19 16 17 16 14 13 12 12 14
27 26 25 26 26 26 26 25 24 24 23 23 23 23 22 21 20 20 19 18 17 18 18 18 17 15 13 13 13 17 17 14 13 12 11 11 11 14
26 25 26 26 27 27 26 25 25 23 23 22 22 22 22 21 20 19 18 17 16 13 12 13 13 13 14 14 14 16 16 17 14 12 10 10 8 9
26 25 26 26 27 27 26 25 24 23 23 22 21 21 21 21 19 18 16 13 12 12 14 14 14 13 11 12 12 12 12 10 13 15 13 10 7 6
26 26 26 26 27 27 26 25 24 23 23 22 21 20 19 18 16 16 14 14 14 14 15 15 13 10 8 7 8 7 7 7 5 5 3 5 4 5

GFSNE_sfc_30mbdewp_234.txt.gz
Dewpoint
40 42 44 44 44 45 46 45 40 37 37 39 41 45 46 46 50 51 52 53 51 51 51 52 54 55 54 53 53 53 53 52 51 49 49 48 46 45
40 40 41 41 40 42 44 44 44 42 38 39 41 43 45 45 44 45 48 51 51 50 50 50 52 54 54 53 53 52 52 52 51 50 49 48 46 44
39 39 39 40 42 43 44 44 44 41 39 39 42 43 43 42 42 43 43 46 50 49 48 48 50 51 52 52 52 52 52 51 51 50 48 47 44 43
39 40 40 41 42 42 42 42 43 43 41 38 40 41 41 42 42 40 41 43 45 48 48 48 48 49 50 50 50 50 51 50 50 48 47 46 44 41
39 40 40 40 39 38 39 41 42 41 42 41 39 41 41 41 40 39 39 41 43 45 46 47 47 48 49 48 49 49 49 48 47 47 45 44 41 39
37 37 38 38 38 39 40 40 41 40 40 39 38 38 39 39 39 37 36 38 39 41 43 47 47 47 47 47 47 48 47 46 45 43 42 40 38 37
36 37 37 38 39 39 39 37 38 38 37 38 36 37 37 37 36 36 36 37 37 39 41 43 46 46 47 46 47 47 46 44 42 41 39 37 37 35
35 35 35 35 36 36 36 37 36 36 36 36 36 36 37 37 37 37 37 35 33 38 39 41 42 45 46 46 47 45 43 42 40 38 36 36 34 32
34 33 33 33 33 33 34 35 37 36 36 36 35 36 36 37 37 36 36 36 34 37 37 33 32 38 43 45 45 43 41 39 37 36 35 34 32 31
34 34 34 34 33 33 34 34 34 35 36 36 35 36 37 37 36 36 36 36 33 31 32 28 30 30 36 41 42 41 39 37 36 35 34 32 31 29
31 32 33 33 34 35 35 34 34 34 36 36 37 36 36 36 36 35 32 32 29 27 30 27 29 28 30 32 37 37 35 34 33 32 32 31 30 30
30 29 31 32 34 35 33 33 32 33 34 34 34 34 34 34 34 35 35 32 27 26 29 27 28 29 25 29 31 32 32 32 32 32 32 32 31 28
27 27 28 31 31 33 34 33 32 34 33 32 31 31 31 32 32 34 35 33 30 27 30 29 27 26 26 26 29 30 31 31 31 32 32 31 30 28
27 27 28 29 31 33 33 33 32 32 31 30 29 28 29 29 30 31 31 32 32 31 31 30 27 26 25 25 25 29 30 30 30 29 30 31 28 27
29 30 31 30 31 31 32 32 31 30 29 27 26 26 26 27 28 28 29 30 30 31 31 31 28 29 26 24 25 25 25 27 28 27 29 28 27 26
29 30 30 30 30 30 30 29 29 28 27 26 25 25 27 27 26 28 26 26 25 25 29 31 31 29 27 27 24 24 24 22 26 26 26 26 27 23
30 30 29 28 27 28 28 27 26 26 25 25 25 24 24 25 25 26 26 25 23 22 22 25 27 28 28 26 23 23 23 23 24 24 24 23 24 22
30 28 28 27 26 27 26 25 25 25 25 25 24 24 23 23 23 24 24 23 21 22 22 23 24 23 23 23 26 23 23 22 23 24 22 19 17 16
28 27 27 25 26 27 26 25 24 25 25 24 24 23 23 22 22 21 21 21 20 21 21 25 24 21 18 15 19 24 21 21 20 19 17 16 15 15
26 26 25 25 25 26 25 25 24 24 24 23 23 23 23 22 21 20 20 20 19 20 20 20 19 19 17 16 15 16 22 19 17 14 13 13 15 15
25 25 25 25 25 26 26 25 24 24 23 23 23 23 22 21 20 20 19 19 18 17 16 15 15 15 16 16 15 15 15 17 15 14 12 12 11 11
26 25 25 25 25 26 26 25 24 23 23 23 23 22 22 21 19 19 19 16 14 13 14 14 14 13 13 14 13 13 13 13 16 15 14 12 11 9
26 26 26 25 26 26 26 25 24 23 23 22 22 22 21 19 19 18 15 14 14 14 14 12 11 11 10 12 12 10 11 9 9 10 8 8 7 7

GFSNE_sfc_30mbdewp_237.txt.gz
Dewpoint
42 42 41 41 43 44 43 42 40 37 34 37 41 41 39 42 44 45 44 44 45 48 50 51 52 53 56 56 55 55 54 54 54 53 52 52 50 48
42 41 41 41 42 43 42 42 42 41 37 37 37 39 41 41 42 43 42 43 42 44 48 49 49 50 52 52 54 54 54 54 53 52 52 51 49 48
41 41 41 41 42 42 43 44 42 41 39 39 37 39 41 41 41 42 43 41 40 43 45 47 48 48 49 51 51 53 53 53 53 53 52 51 49 48
40 40 40 40 41 41 41 40 40 40 40 38 40 40 40 41 41 41 42 40 39 41 44 43 45 46 47 48 50 51 52 52 52 52 52 50 49 48
39 38 37 38 38 39 39 40 40 40 41 39 38 39 39 40 40 41 41 39 38 39 40 40 42 45 46 47 48 50 50 50 50 50 50 49 48 46
37 37 37 37 37 36 36 37 37 38 37 37 37 37 38 38 40 39 38 38 38 37 38 40 41 44 45 46 46 47 48 48 48 48 48 47 45 43
35 35 35 35 36 35 34 35 36 35 35 34 36 36 36 37 37 38 38 38 38 38 38 40 41 43 46 46 46 46 47 47 47 47 45 43 41 42
35 36 36 35 35 34 33 33 34 34 34 33 33 33 35 37 38 38 37 36 33 38 38 37 39 39 44 45 46 46 46 47 46 45 43 41 40 39
31 32 31 32 34 34 35 34 34 34 35 35 34 34 35 37 38 36 36 35 34 37 35 34 34 34 37 39 46 46 45 45 44 42 40 39 38 36
31 31 30 31 32 32 32 33 34 35 36 35 35 35 36 37 37 37 35 35 35 33 33 31 31 31 32 36 44 45 44 43 41 39 38 36 35 33
30 30 30 31 31 31 31 31 32 33 35 36 36 36 37 37 36 35 32 31 31 30 31 29 30 29 30 30 37 43 42 40 38 36 34 33 32 31
29 29 29 30 30 30 30 30 30 31 33 34 34 35 35 35 35 34 33 31 31 28 31 29 30 31 26 30 31 35 37 36 34 33 33 32 31 30
28 28 29 29 29 29 30 31 31 32 32 32 32 32 33 33 33 33 34 34 31 31 31 32 30 30 29 27 29 31 31 31 31 31 32 32 31 29
28 29 30 30 30 31 30 32 32 32 32 31 31 31 30 30 31 31 32 32 33 32 33 33 31 29 28 27 25 29 30 31 31 30 30 31 31 29
29 29 30 31 31 31 31 31 31 31 31 29 29 29 29 29 30 30 31 31 31 31 32 32 32 32 30 27 27 28 27 29 31 30 30 29 29 29
29 30 31 31 30 31 31 30 30 29 28 28 28 28 28 29 29 30 29 30 28 28 31 32 33 32 30 29 27 27 27 25 29 29 29 29 29 26
29 30 30 30 28 29 29 29 28 28 27 27 26 26 27 28 27 29 29 28 27 26 27 29 31 31 31 29 26 25 25 26 28 28 27 25 24 22
28 27 28 29 28 28 28 28 28 27 26 26 26 26 26 26 26 27 27 26 25 25 26 27 27 26 25 25 28 25 26 25 26 27 25 22 22 23
25 26 27 28 28 27 27 28 27 27 27 26 26 26 26 25 26 24 25 25 25 25 26 27 27 25 21 18 22 28 24 24 24 24 24 22 20 17
25 25 26 28 28 27 27 28 27 27 26 26 26 26 26 25 24 24 24 24 23 23 23 26 26 25 20 19 18 21 27 24 22 20 20 20 17 15
25 26 27 28 29 28 28 28 28 27 27 26 26 26 26 24 23 23 23 24 24 23 21 19 20 23 22 22 18 19 22 25 25 20 19 18 16 15
26 26 27 28 29 29 29 28 28 27 26 26 26 26 26 24 23 23 24 23 22 21 19 18 21 23 24 19 18 17 18 18 17 16 16 17 17 15
27 27 27 27 29 29 29 28 27 27 26 26 26 25 25 24 24 23 21 19 18 17 16 16 17 20 19 19 18 17 17 17 17 16 14 11 10 10

GFSNE_sfc_30mbdewp_240.txt.gz
Dewpoint
40 41 39 37 37 36 35 34 34 35 33 31 30 32 36 37 38 38 40 40 42 42 43 45 47 48 50 51 51 53 55 55 55 54 54 53 52 50
37 38 39 38 38 37 37 36 37 39 38 36 33 35 37 37 36 37 37 41 41 41 41 43 45 46 47 48 50 50 54 55 54 54 54 52 51 50
38 37 37 38 37 37 39 41 41 38 38 38 35 36 37 39 38 37 37 38 38 39 39 42 42 42 43 46 47 49 50 52 54 53 53 52 53 52
37 37 37 36 37 37 39 38 39 38 38 36 36 37 38 38 38 38 38 37 41 39 38 39 40 40 41 43 46 47 48 49 52 53 53 52 52 51
36 36 36 36 36 36 37 37 36 36 38 39 38 38 37 37 36 37 37 38 40 39 37 37 38 40 41 42 44 45 46 48 49 52 52 51 51 52
37 37 37 36 36 36 34 34 33 35 35 35 35 36 38 38 36 36 36 36 38 38 37 37 39 41 41 43 44 44 45 47 48 49 50 50 50 49
36 36 36 37 36 35 35 34 35 33 33 33 32 33 34 36 37 37 37 37 39 39 38 39 39 38 39 41 45 46 45 46 47 48 48 48 47 47
33 33 33 33 33 32 33 34 33 32 33 33 33 33 33 34 35 36 37 37 34 38 38 37 38 38 39 40 41 41 45 45 46 47 47 46 45 45
32 32 31 31 32 32 32 32 32 32 33 34 32 33 34 35 35 35 36 36 35 37 37 34 37 36 37 36 38 38 43 45 45 45 45 44 43 42
31 31 30 30 30 30 30 31 30 31 33 34 35 35 36 37 36 36 37 36 36 36 37 31 34 34 33 34 35 36 41 44 44 44 43 42 40 39
30 30 30 30 29 28 29 29 30 31 32 34 35 36 36 35 36 36 33 32 31 33 33 32 33 32 31 31 33 37 42 43 44 42 40 38 36 35
30 30 30 30 29 30 30 30 29 30 32 33 33 35 35 35 35 35 34 31 31 30 33 31 32 32 31 30 31 36 40 40 39 37 35 33 34 32
30 30 30 30 30 31 31 31 30 32 31 32 33 33 34 34 35 35 35 33 31 31 34 33 33 32 31 27 29 32 33 33 33 34 35 33 32 30
30 30 30 30 30 31 31 31 31 31 33 31 31 31 32 32 32 33 32 32 33 33 34 34 32 33 32 27 25 29 30 31 31 31 30 31 31 31
30 30 30 31 31 32 31 31 31 31 31 30 30 30 31 31 31 31 32 32 32 32 32 33 33 34 33 28 27 28 27 29 30 30 30 30 30 31
31 31 31 31 31 31 31 31 30 30 29 28 28 29 30 32 31 31 31 31 30 29 32 33 34 34 32 31 29 29 29 27 30 30 30 30 31 31
28 30 29 29 28 28 29 30 30 29 28 27 27 29 29 30 30 31 30 31 29 28 28 30 31 32 32 31 28 29 29 29 29 30 29 28 30 26
27 27 28 29 28 28 28 29 29 29 28 27 27 28 29 29 29 30 31 30 28 28 28 29 29 28 27 28 31 28 28 27 28 29 28 25 25 22
27 26 27 28 29 28 27 28 28 28 28 28 27 27 28 28 29 29 29 29 28 28 29 30 29 27 24 21 27 31 27 26 26 26 26 25 22 23
26 27 27 28 29 29 28 28 29 29 29 28 28 28 29 29 28 28 28 27 27 28 28 30 30 29 24 22 22 26 30 28 26 24 24 24 22 20
26 26 28 28 29 30 30 30 30 29 29 29 29 28 28 29 27 26 26 27 27 25 23 23 24 25 25 24 22 23 26 29 28 24 22 21 19 17
28 28 29 28 29 30 30 30 30 30 29 28 29 29 29 29 26 26 27 26 25 24 23 24 27 28 27 23 20 20 20 21 19 18 18 20 19 17
27 29 29 29 29 30 30 30 30 29 29 29 29 28 28 28 28 27 25 24 23 23 23 24 27 26 24 23 21 20 19 20 20 17 14 13 14 15

GFSNE_sfc_30mbdewp_246.txt.gz
Dewpoint
43 42 42 41 41 41 41 39 38 36 37 38 37 38 39 40 39 40 41 42 41 40 39 40 43 41 42 41 41 40 41 42 46 48 49 49 57 56
40 41 40 41 41 41 40 39 38 37 35 36 37 37 39 39 38 39 40 41 40 40 40 40 40 40 40 41 40 41 42 43 43 48 49 49 56 55
40 39 39 40 40 39 40 39 38 39 37 37 37 37 36 37 36 35 35 36 37 40 40 40 40 39 39 39 40 41 41 42 43 44 47 49 51 55
39 38 38 38 39 39 40 40 39 38 36 35 35 35 33 33 34 34 34 33 33 36 39 40 39 37 38 39 40 40 40 40 42 44 45 47 49 55
38 39 39 39 38 38 36 36 35 34 34 32 31 33 33 34 33 34 34 34 35 36 35 38 40 39 38 39 39 39 39 42 41 41 42 45 47 50
37 38 37 37 35 34 33 33 33 30 30 30 29 29 28 30 31 31 31 32 33 35 36 37 39 40 39 38 38 38 40 39 39 39 41 43 44 48
36 35 35 34 34 34 33 32 30 30 30 27 27 27 28 29 30 31 32 33 33 35 36 38 39 38 37 37 38 39 37 37 37 38 39 42 44 46
34 34 34 34 34 32 31 31 33 30 29 28 28 27 27 30 31 32 32 31 30 37 37 35 39 37 36 36 37 37 36 35 36 37 38 41 44 46
33 33 33 31 31 31 30 30 30 30 30 30 29 30 30 30 32 31 32 31 31 34 35 32 36 35 35 35 37 35 34 34 35 36 37 41 43 46
33 32 32 32 32 30 30 29 29 31 31 32 32 32 33 34 33 33 33 32 32 32 35 30 34 32 33 35 34 33 34 35 36 37 38 42 43 45
31 31 31 30 31 31 30 29 29 31 32 32 33 34 33 34 34 33 31 30 29 30 34 33 32 33 32 33 31 32 34 36 38 38 42 43 43 43
31 31 32 31 32 31 30 30 30 31 32 32 31 32 34 34 34 34 33 29 29 29 34 31 33 33 31 32 29 31 32 35 40 41 42 42 42 42
30 30 31 32 30 30 31 31 31 33 32 31 32 33 32 33 34 34 33 31 28 28 32 33 31 32 32 28 28 29 30 31 35 39 41 42 41 39
29 30 31 29 30 31 32 32 31 32 32 32 31 30 30 30 31 33 33 32 32 30 32 32 31 32 31 27 25 28 29 30 31 31 32 34 36 36
31 30 27 29 31 32 29 28 31 31 32 31 30 29 30 32 33 32 32 33 33 32 32 32 31 32 31 27 26 27 26 28 29 29 30 30 30 31
29 28 28 29 29 30 28 29 31 31 31 31 30 30 31 31 31 31 30 31 31 28 32 32 33 32 29 28 28 27 28 26 28 28 28 28 29 30
27 27 28 27 26 27 27 29 30 30 32 31 29 30 30 30 29 31 30 31 28 28 29 31 32 31 31 29 27 28 28 28 29 29 27 26 28 28
27 28 26 25 25 26 27 29 30 30 30 31 31 30 30 29 29 31 31 30 28 29 29 30 29 27 26 28 31 27 27 28 28 27 26 24 24 28
29 28 27 26 24 26 27 27 29 30 30 31 30 31 30 29 30 30 30 29 28 28 29 30 29 24 22 21 27 31 26 26 25 24 25 22 22 24
29 28 27 28 26 26 27 28 29 30 30 30 29 30 30 29 29 29 29 29 28 29 28 30 30 25 23 22 22 25 30 25 22 21 21 22 23 23
28 27 27 28 27 26 27 28 30 30 31 31 30 30 29 29 28 29 29 29 28 26 24 25 28 27 26 23 19 20 23 28 26 23 23 21 19 18
29 29 28 28 29 28 25 28 30 30 30 30 30 31 30 29 29 29 29 28 27 25 25 27 29 28 22 19 18 18 18 20 22 24 25 23 19 16
30 28 28 28 28 29 29 25 28 29 29 30 30 30 30 29 30 30 28 27 26 26 26 26 26 25 23 21 20 19 19 19 17 16 18 22 23 20

GFSNE_sfc_30mbdewp_249.txt.gz
Dewpoint
41 40 41 40 41 41 40 40 39 35 35 36 36 38 38 38 37 39 36 35 37 36 38 37 39 42 43 43 43 42 41 41 41 42 43 44 44 48
40 40 40 41 40 41 40 39 39 38 36 37 37 37 37 35 35 35 34 36 36 36 35 35 37 41 42 42 42 42 41 41 41 40 40 43 44 46
40 39 38 39 39 40 40 39 38 37 35 35 35 34 33 33 33 33 34 35 34 34 35 37 38 37 42 41 40 40 40 41 39 40 42 44 46 45
39 39 39 39 39 36 36 35 34 34 32 30 30 30 30 29 29 29 31 31 32 33 34 35 37 37 38 42 41 39 39 38 40 41 41 41 41 45
38 37 37 36 35 34 33 33 32 31 30 29 28 29 28 28 30 29 30 31 31 31 32 34 34 37 39 41 40 38 37 38 40 38 38 38 39 41
37 36 36 34 33 33 33 32 30 28 28 28 27 27 27 28 29 29 30 31 32 33 33 34 36 38 37 38 38 38 37 39 38 37 37 37 38 39
35 34 34 34 34 32 31 30 30 29 28 26 26 27 27 28 28 31 31 31 31 33 32 35 35 35 37 36 36 36 37 37 36 36 36 36 37 38
33 33 33 33 32 31 30 28 29 28 28 28 28 28 28 29 31 30 30 29 28 33 33 31 35 34 35 35 35 36 37 36 34 34 35 35 36 37
33 33 33 32 31 31 30 28 29 30 30 30 29 30 29 30 31 30 30 30 30 32 32 30 33 33 35 33 33 35 33 33 35 35 36 36 36 37
32 31 31 30 30 32 31 29 29 29 30 32 32 32 32 33 33 32 32 31 32 33 32 28 32 33 33 33 34 31 32 33 34 36 37 37 37 38
31 30 32 30 31 31 30 28 28 30 32 33 33 34 34 33 34 33 30 29 27 26 29 31 31 31 31 33 30 30 31 32 34 38 38 38 38 41
29 31 31 31 30 30 30 30 30 30 32 32 32 32 33 33 33 33 32 27 26 25 31 28 29 31 29 34 29 29 30 31 33 38 40 41 42 42
29 30 30 28 29 30 31 30 30 31 30 32 32 32 32 31 30 31 32 29 28 27 29 30 29 30 31 30 26 27 29 29 31 35 40 41 43 42
29 29 27 28 29 30 30 28 26 28 31 31 31 29 29 29 30 32 30 31 32 31 32 31 28 29 29 28 24 27 28 29 30 31 35 37 37 39
29 28 27 28 27 28 29 27 26 30 30 30 29 28 29 30 30 31 30 30 32 32 32 31 30 30 27 26 25 26 26 27 29 29 30 31 32 34
26 26 27 28 26 27 27 28 30 31 30 30 30 30 30 30 30 31 29 30 28 28 32 32 31 30 27 27 26 25 27 25 28 28 28 28 29 31
26 26 27 25 25 26 27 27 28 30 29 30 30 30 30 29 29 30 30 29 27 28 29 30 30 29 29 28 26 27 26 26 28 28 26 25 27 28
26 25 26 24 23 24 26 27 28 28 29 30 30 29 29 28 28 29 30 29 27 27 28 29 26 23 23 26 29 24 24 24 26 27 27 24 24 27
25 26 26 25 25 24 25 27 27 28 30 30 29 29 29 28 27 28 28 28 27 26 28 30 23 21 20 19 23 29 24 24 23 22 24 24 23 25
27 27 26 26 26 25 25 26 27 28 29 29 29 29 28 27 27 27 27 27 25 25 26 29 24 23 21 19 19 23 27 23 22 21 21 23 25 26
26 26 26 26 26 26 26 25 26 29 30 29 29 29 27 27 27 28 28 27 24 23 24 25 25 24 23 20 18 18 21 27 26 22 22 19 19 20
26 26 27 26 26 27 26 27 23 26 28 29 29 28 29 27 27 28 28 26 24 24 25 27 25 21 19 18 17 18 19 22 24 25 27 23 19 16
27 28 26 25 26 26 26 26 26 26 27 29 28 28 27 27 27 28 27 26 25 25 26 23 23 22 20 20 18 18 17 17 18 18 22 23 21 21

GFSNE_sfc_30mbdewp_255.txt.gz
Dewpoint
42 41 41 41 41 41 40 39 37 34 34 36 36 36 32 31 31 31 30 30 32 32 32 33 33 34 34 35 35 36 37 37 37 40 42 42 41 41
41 40 40 40 40 39 38 37 36 35 33 36 35 31 31 31 30 30 29 30 30 31 33 33 33 33 33 34 34 35 37 39 39 39 41 42 40 39
40 40 39 39 37 35 35 34 32 33 30 29 31 30 29 29 29 29 30 29 29 30 31 31 31 31 33 31 33 34 35 36 38 39 40 41 40 39
39 39 38 36 34 34 33 31 30 30 28 26 27 27 27 28 28 29 29 29 29 29 31 31 32 32 32 33 31 32 35 37 36 37 36 37 38 39
39 38 37 36 33 32 31 30 29 29 28 27 27 27 28 29 28 29 29 29 30 30 31 31 31 33 33 34 34 34 36 37 37 36 34 34 36 35
39 37 36 33 32 31 30 29 29 28 28 27 27 27 28 28 29 28 28 29 28 29 30 31 31 30 31 32 33 34 35 36 35 34 34 34 34 34
38 36 34 35 32 31 29 28 28 27 28 27 27 27 27 28 28 29 28 28 28 29 30 30 29 29 30 31 31 33 34 35 35 35 34 34 33 33
35 34 34 34 32 31 30 29 28 27 27 27 27 27 27 29 30 29 29 27 25 29 30 28 28 27 29 30 30 31 32 34 33 32 31 32 34 35
34 33 33 32 31 31 30 29 29 29 29 29 27 28 29 30 31 30 29 27 27 29 29 26 27 26 28 27 29 32 34 34 31 30 33 34 34 34
35 34 32 30 31 30 29 28 27 28 28 29 30 31 32 33 33 32 30 28 28 28 28 24 26 26 28 28 30 33 33 30 29 32 33 34 35 37
33 32 31 30 30 30 28 27 26 25 27 29 31 31 30 30 31 31 28 27 25 25 26 28 27 27 26 26 30 30 30 28 29 31 32 34 36 38
32 32 31 30 29 29 29 28 24 24 27 29 30 30 29 29 30 29 29 27 26 25 27 28 28 28 25 27 27 27 26 28 29 30 30 33 35 38
30 30 29 28 29 30 31 28 26 26 29 28 29 29 30 28 28 28 29 30 27 26 29 29 28 27 26 24 23 24 26 27 29 29 29 32 36 39
30 30 28 28 29 29 28 28 28 29 28 27 26 27 27 28 28 29 29 30 31 29 31 30 27 26 24 22 22 24 24 26 29 28 29 32 40 40
31 28 28 28 26 26 26 26 27 27 27 26 25 26 27 28 28 26 28 28 28 28 29 28 28 26 25 23 21 21 22 24 28 27 28 31 34 38
29 29 28 27 26 25 25 25 26 26 27 27 26 27 28 28 27 26 27 27 26 26 27 30 29 25 23 23 22 21 23 22 26 27 28 29 31 33
27 26 26 26 25 24 24 25 25 25 26 27 27 26 26 26 26 26 26 27 24 24 25 27 27 25 22 23 21 21 22 22 25 27 26 25 27 30
26 25 25 24 23 23 23 23 24 24 26 26 26 25 25 25 24 25 25 24 24 24 25 26 22 18 17 17 24 22 21 22 25 26 27 24 24 27
24 25 24 24 23 23 23 23 24 25 26 26 25 24 25 25 25 24 25 25 24 25 26 23 18 18 14 14 17 27 21 22 24 24 25 25 24 26
24 25 26 25 24 24 23 24 24 23 25 25 25 25 25 25 24 24 25 25 23 22 24 21 18 17 16 16 16 22 27 23 22 22 24 26 27 29
24 25 25 25 25 25 24 24 24 24 23 24 25 24 25 26 25 24 24 24 23 22 22 20 21 20 18 16 18 19 21 27 27 24 23 22 22 23
26 26 25 25 25 25 24 24 23 23 23 24 24 23 24 25 24 25 24 24 23 22 21 20 20 18 17 17 16 16 18 22 25 26 27 25 21 19
24 25 25 25 26 26 26 25 23 22 22 22 22 23 22 25 24 24 25 24 23 22 21 20 19 18 18 17 16 16 17 18 20 19 21 25 25 26

GFSNE_sfc_30mbdewp_261.txt.gz
Dewpoint
44 44 44 43 43 42 41 39 32 29 30 35 36 39 29 26 28 31 30 30 32 32 32 32 33 33 33 33 34 33 33 35 35 36 36 37 38 38
45 43 43 42 42 42 41 40 38 34 27 35 34 32 28 27 27 30 30 31 31 31 32 32 32 32 32 33 32 32 32 33 34 34 35 36 37 38
42 41 40 39 38 38 37 36 35 35 32 30 29 28 29 28 28 30 30 30 29 31 31 32 32 31 31 31 32 32 32 32 33 34 33 34 35 36
41 40 39 38 37 37 36 33 33 31 28 26 27 27 28 29 29 30 30 29 30 28 30 31 30 31 32 32 32 31 31 31 31 32 34 35 35 35
41 39 38 37 36 36 35 33 32 32 31 28 27 28 27 28 28 30 29 29 28 28 28 29 30 31 30 31 30 30 30 31 31 32 32 33 34 35
41 40 39 38 37 35 34 32 32 30 30 29 27 26 27 28 29 28 28 29 28 28 28 29 30 30 30 29 29 29 30 31 32 33 34 34 34 33
40 40 39 38 36 35 33 32 31 30 29 28 27 28 28 28 28 28 28 29 28 29 28 29 29 28 28 29 28 29 31 31 32 32 31 31 31 31
38 39 38 37 35 34 33 32 31 30 29 29 28 27 27 28 29 29 29 28 27 29 29 29 29 28 29 27 29 31 31 30 30 29 30 31 31 32
37 37 36 35 34 33 32 31 31 30 30 29 28 28 28 28 29 28 28 28 27 29 29 28 30 29 29 27 30 31 30 29 27 28 29 30 31 31
37 36 35 34 34 33 32 31 30 30 29 29 30 30 30 30 29 29 29 29 29 29 30 25 29 28 30 28 29 29 28 28 27 28 28 29 30 31
36 36 34 33 33 33 31 31 31 29 28 29 31 31 31 31 30 30 29 27 26 27 31 29 28 27 28 28 28 27 28 27 27 27 29 30 31 32
35 34 33 33 32 31 30 30 28 28 30 30 32 31 31 30 30 30 29 27 27 26 30 28 27 27 24 26 28 29 29 28 28 30 32 32 33 34
33 32 32 32 32 31 31 30 28 30 29 30 30 31 31 30 30 30 29 29 27 27 29 30 27 26 24 23 25 28 28 29 30 31 32 32 34 39
32 32 32 32 31 31 30 28 29 30 29 29 28 28 28 29 28 29 30 31 31 30 30 29 27 27 24 22 22 25 27 28 29 30 31 33 34 38
32 32 32 31 31 31 29 28 29 29 29 28 27 27 28 29 30 29 29 30 30 30 30 31 28 25 23 22 22 24 25 26 29 30 31 31 31 33
31 31 31 31 30 29 28 27 28 29 28 27 27 27 28 28 27 28 28 27 26 27 29 29 26 25 22 22 23 24 26 25 28 30 31 31 32 32
31 30 30 29 28 27 26 27 27 28 27 27 27 26 26 26 27 27 27 27 26 25 25 26 27 25 26 24 22 25 26 26 29 30 30 29 29 31
29 29 28 28 27 25 25 26 27 26 26 25 26 26 25 26 26 27 27 26 26 24 25 25 24 24 22 23 24 25 26 26 29 30 29 26 26 29
28 28 28 28 27 25 26 26 25 26 26 25 25 26 26 25 26 26 26 26 25 25 25 25 23 22 20 19 22 26 26 27 29 28 27 25 25 27
28 28 28 28 26 26 25 25 25 26 25 25 25 25 26 25 25 24 25 25 24 24 24 24 23 22 22 20 19 25 27 26 27 28 28 28 29 29
27 27 28 27 27 26 26 27 27 26 26 26 25 24 26 24 24 24 25 24 23 24 23 23 23 23 23 23 22 22 25 27 27 27 30 29 27 26
28 28 28 28 29 28 28 27 27 26 26 26 26 26 26 24 24 24 25 24 24 24 24 23 23 23 23 22 20 22 23 25 27 26 27 28 28 24
29 29 30 30 30 29 28 28 26 27 26 25 25 25 26 24 23 24 24 24 24 24 24 23 22 22 22 21 21 22 23 23 23 22 23 26 27 27